Terminal Aerodrome Forecast
Issued by NWS

Current Version | Previous Version | Graphics & Text | Print | Product List | Glossary On
Versions: 1 2 3 4 5 6 7 8 9 10 11 12 13 14 15 16
000
FTUS41 KPBZ 270901 AAA
TAFMGW
TAF AMD
KMGW 270901Z 2709/2806 VRB04KT P6SM BKN060
      TEMPO 2711/2713 3SM BR
     FM271400 35005KT P6SM BKN035
     FM280200 VRB03KT P6SM SCT035=

USA.gov is the U.S. government's official web portal to all federal, state and local government web resources and services.